Weather History for Valparaiso, IN

Change the Weather History Date:

Monday, November 5, 2012

  Actual Average Record
Temperature  
Mean Temperature 37 °F 46 °F  
Max Temperature 46 °F 54 °F 72 °F (2008)
Min Temperature 27 °F 37 °F 27 °F (2012)
Degree Days  
Heating Degree Days 28 19  
Month to date heating degree days 127 93  
Since 1 July heating degree days 694 623  
Cooling Degree Days 0 0  
Month to date cooling degree days 0 0  
Year to date cooling degree days 1054 713  
Moisture  
Dew Point 29 °F    
Average Humidity 75    
Maximum Humidity 96    
Minimum Humidity 50    
Precipitation  
Precipitation 0.00 in 0.14 in 0.34 in (2003)
Month to date precipitation T 0.67  
Year to date precipitation 23.91 32.67  
Sea Level Pressure  
Sea Level Pressure 30.19 in    
Wind  
Wind Speed 3 mph (ENE)    
Max Wind Speed 10 mph    
Max Gust Speed 15 mph    
Visibility 10 miles    
Events      
T = Trace of Precipitation, MM = Missing Value Source: NWS Daily Summary

Daily Weather History Graph

Daily Weather History Graph

Search for Another Location

Airport:

Trip Planner

Search our weather history database for the weather conditions in past years. The results will help you decide how hot, cold, wet, or windy it might be!

Date:

Astronomy

Nov. 05, 2012 Rise Set
Actual Time 6:25 AM CST 4:37 PM CST
Civil Twilight 5:56 AM CST 5:06 PM CST
Nautical Twilight 5:23 AM CST 5:39 PM CST
Astronomical Twilight 4:50 AM CST 6:11 PM CST
Moon 10:14 PM CST (11/5) 11:44 AM CST (11/5)
Length of Visible Light 11h 10m
Length of Day
10h 12m
Waning Gibbous, 62% of the Moon is Illuminated
Nov 5
Waning Gibbous
Nov 6
Last Quarter
Nov 13
New
Nov 20
First Quarter
Nov 28
Full

Hourly Weather History & Observations

Time (CST) Temp. Windchill Dew Point Humidity Pressure Visibility Wind Dir Wind Speed Gust Speed Precip Events Conditions
12:53 AM 33.1 °F - 28.9 °F 85% 30.21 in 10.0 mi Calm Calm - N/A   Overcast
1:53 AM 34.0 °F - 28.9 °F 82% 30.22 in 10.0 mi Calm Calm - N/A   Overcast
2:53 AM 34.0 °F - 28.9 °F 82% 30.21 in 10.0 mi Calm Calm - N/A   Overcast
3:53 AM 33.1 °F - 28.0 °F 82% 30.20 in 10.0 mi Calm Calm - N/A   Overcast
4:53 AM 32.0 °F - 28.9 °F 88% 30.22 in 10.0 mi Calm Calm - N/A   Overcast
5:53 AM 32.0 °F - 28.0 °F 85% 30.21 in 10.0 mi Calm Calm - N/A   Overcast
6:53 AM 32.0 °F - 28.9 °F 88% 30.21 in 8.0 mi Calm Calm - N/A   Overcast
7:53 AM 34.0 °F - 30.0 °F 85% 30.22 in 8.0 mi Calm Calm - N/A   Overcast
8:53 AM 37.0 °F 31.0 °F 30.0 °F 76% 30.22 in 10.0 mi East 8.1 mph - N/A   Overcast
9:53 AM 41.0 °F 35.8 °F 30.0 °F 65% 30.22 in 10.0 mi ENE 8.1 mph - N/A   Scattered Clouds
10:15 AM 42.8 °F 37.5 °F 30.2 °F 61% 30.20 in 10.0 mi ENE 9.2 mph - N/A   Overcast
10:53 AM 41.0 °F 35.8 °F 28.0 °F 60% 30.22 in 10.0 mi East 8.1 mph - N/A   Mostly Cloudy
11:02 AM 42.8 °F 38.0 °F 28.4 °F 57% 30.19 in 10.0 mi East 8.1 mph - N/A   Scattered Clouds
11:53 AM 45.0 °F 40.6 °F 30.0 °F 56% 30.19 in 10.0 mi East 8.1 mph - N/A   Clear
12:53 PM 45.0 °F 40.1 °F 28.9 °F 53% 30.17 in 10.0 mi East 9.2 mph - N/A   Partly Cloudy
1:53 PM 46.0 °F 43.9 °F 28.0 °F 50% 30.16 in 10.0 mi Variable 4.6 mph - N/A   Clear
2:53 PM 46.0 °F 43.9 °F 28.0 °F 50% 30.16 in 10.0 mi NNE 4.6 mph - N/A   Mostly Cloudy
3:53 PM 41.0 °F 36.4 °F 28.9 °F 62% 30.17 in 10.0 mi North 6.9 mph - N/A   Partly Cloudy
4:53 PM 37.9 °F 35.5 °F 30.0 °F 73% 30.17 in 10.0 mi North 3.5 mph - N/A   Clear
5:53 PM 35.1 °F 31.0 °F 28.9 °F 78% 30.18 in 10.0 mi North 4.6 mph - N/A   Clear
6:53 PM 33.1 °F 30.0 °F 28.0 °F 82% 30.18 in 10.0 mi NNE 3.5 mph - N/A   Clear
7:53 PM 33.1 °F - 28.0 °F 82% 30.18 in 10.0 mi Calm Calm - N/A   Clear
8:53 PM 33.1 °F - 28.9 °F 85% 30.18 in 10.0 mi Calm Calm - N/A   Clear
9:53 PM 30.0 °F 25.2 °F 28.0 °F 92% 30.16 in 10.0 mi East 4.6 mph - N/A   Clear
10:53 PM 28.0 °F 24.2 °F 26.1 °F 92% 30.14 in 8.0 mi East 3.5 mph - N/A   Clear
11:53 PM 28.0 °F - 27.0 °F 96% 30.13 in 5.0 mi Calm Calm - N/A   Clear